Hilton Head Weather Center

Moon Phase Calendar



Online Cameras

 


      

Current Conditions in Hilton Head
4/11/2021 10:47:20 AM

68°F
Feels Like 68
Clouds
Humidity
77%
Pressure
29.77"
Wind
9.2 mph (SSW)
Dew Point
60°F
UV Index
5/10 (Moderate)
Visibility
6 mi

Hourly Forecast

Date & Time Sun, Apr 11
10:00 AM
Sun, Apr 11
11:00 AM
Sun, Apr 11
12:00 PM
Sun, Apr 11
1:00 PM
Sun, Apr 11
2:00 PM
Sun, Apr 11
3:00 PM
Sun, Apr 11
4:00 PM
Sun, Apr 11
5:00 PM
Sun, Apr 11
6:00 PM
Sun, Apr 11
7:00 PM
Sun, Apr 11
8:00 PM
Sun, Apr 11
9:00 PM
Sun, Apr 11
10:00 PM
Sun, Apr 11
11:00 PM
Mon, Apr 12
12:00 AM
Mon, Apr 12
1:00 AM
Mon, Apr 12
2:00 AM
Mon, Apr 12
3:00 AM
Mon, Apr 12
4:00 AM
Mon, Apr 12
5:00 AM
Mon, Apr 12
6:00 AM
Mon, Apr 12
7:00 AM
Mon, Apr 12
8:00 AM
Mon, Apr 12
9:00 AM
Mon, Apr 12
10:00 AM
Mon, Apr 12
11:00 AM
Mon, Apr 12
12:00 PM
Mon, Apr 12
1:00 PM
Mon, Apr 12
2:00 PM
Mon, Apr 12
3:00 PM
Mon, Apr 12
4:00 PM
Mon, Apr 12
5:00 PM
Mon, Apr 12
6:00 PM
Mon, Apr 12
7:00 PM
Mon, Apr 12
8:00 PM
Mon, Apr 12
9:00 PM
Mon, Apr 12
10:00 PM
Mon, Apr 12
11:00 PM
Tue, Apr 13
12:00 AM
Tue, Apr 13
1:00 AM
Tue, Apr 13
2:00 AM
Tue, Apr 13
3:00 AM
Tue, Apr 13
4:00 AM
Tue, Apr 13
5:00 AM
Tue, Apr 13
6:00 AM
Tue, Apr 13
7:00 AM
Tue, Apr 13
8:00 AM
Tue, Apr 13
9:00 AM
Condition
Clouds

Clouds

Clouds

Clouds

Clouds

Clouds

Clouds

Clouds

Clouds

Clouds

Clouds

Rain

Rain

Rain

Clear

Clear

Clear

Clear

Clear

Clear

Clear

Clear

Clear

Clear

Clear

Clear

Clear

Clear

Clear

Clear

Clear

Clear

Clear

Clear

Clear

Clear

Clear

Clouds

Clouds

Clouds

Clouds

Clouds

Clouds

Clouds

Clouds

Clouds

Clouds

Clear
Temperature 68°F70°F71°F72°F73°F73°F74°F74°F73°F72°F69°F65°F63°F64°F64°F63°F62°F61°F59°F58°F56°F56°F57°F62°F67°F71°F74°F76°F77°F78°F79°F79°F79°F76°F70°F68°F66°F65°F64°F63°F63°F62°F62°F61°F61°F60°F61°F65°F
Feels Like 68°F70°F71°F72°F73°F72°F74°F74°F73°F72°F69°F66°F64°F64°F64°F63°F63°F61°F59°F57°F55°F55°F56°F60°F65°F70°F72°F75°F76°F78°F79°F79°F78°F75°F70°F67°F65°F64°F63°F63°F62°F61°F61°F60°F60°F59°F60°F64°F
Cloudiness 75%73%77%82%85%100%100%100%100%100%89%0%1%1%1%2%2%0%0%0%0%0%0%0%0%0%0%0%0%0%0%0%0%0%0%1%3%24%43%36%31%100%100%100%100%84%71%10%
Visibility 6 mi6 mi6 mi6 mi6 mi6 mi6 mi6 mi6 mi6 mi6 mi6 mi6 mi6 mi6 mi6 mi6 mi6 mi6 mi6 mi6 mi6 mi6 mi6 mi6 mi6 mi6 mi6 mi6 mi6 mi6 mi6 mi6 mi6 mi6 mi6 mi6 mi6 mi6 mi6 mi6 mi6 mi6 mi6 mi6 mi6 mi6 mi6 mi
Precipitation 0%1%1%0%1%0%1%2%17%18%14%57%62%65%69%73%69%1%0%0%0%0%0%0%0%0%0%0%0%0%0%0%0%0%0%0%0%0%0%0%0%0%0%0%0%0%0%0%
Humidity 77%71%66%62%62%62%61%61%63%69%78%89%95%96%94%93%92%91%85%79%78%78%77%67%48%40%37%36%36%36%36%36%39%45%55%59%64%67%68%68%69%69%70%69%68%68%65%55%
Dew Point 60°F60°F59°F58°F59°F59°F60°F60°F60°F61°F62°F62°F62°F62°F62°F61°F60°F58°F55°F51°F50°F49°F50°F51°F47°F45°F46°F47°F48°F50°F50°F50°F52°F53°F53°F53°F54°F54°F54°F53°F53°F52°F52°F51°F50°F49°F49°F48°F
Pressure 29.77"29.77"29.74"29.74"29.71"29.68"29.68"29.65"29.65"29.68"29.68"29.71"29.71"29.71"29.71"29.71"29.71"29.74"29.74"29.74"29.77"29.8"29.83"29.83"29.83"29.83"29.83"29.83"29.8"29.8"29.8"29.8"29.8"29.83"29.85"29.85"29.88"29.88"29.91"29.91"29.91"29.91"29.94"29.94"29.97"30"30.03"30.06"
Wind Speed 9 mph10.2 mph11.7 mph11.4 mph11.5 mph11 mph11.2 mph11.6 mph9.6 mph10 mph8.2 mph7.7 mph9 mph8.3 mph7.5 mph7.7 mph7.8 mph7.9 mph8 mph8.3 mph8.5 mph7.8 mph8.2 mph9.8 mph10 mph9.2 mph8.5 mph8.1 mph7.8 mph8.5 mph10.5 mph11.3 mph11.1 mph9.5 mph6.5 mph6.6 mph7.1 mph6.7 mph7.2 mph6.7 mph6.8 mph6.8 mph7.6 mph7.3 mph7.7 mph7.8 mph7.1 mph8.2 mph
Wind
Direction
232°
SW
222°
SW
207°
SSW
224°
SW
229°
SW
233°
SW
221°
SW
219°
SW
227°
SW
226°
SW
230°
SW
216°
SW
206°
SSW
210°
SSW
233°
SW
257°
WSW
271°
W
293°
WNW
304°
NW
312°
NW
315°
NW
313°
NW
310°
NW
311°
NW
321°
NW
321°
NW
312°
NW
304°
NW
294°
WNW
283°
WNW
287°
WNW
289°
WNW
293°
WNW
289°
WNW
275°
W
269°
W
276°
W
278°
W
286°
WNW
302°
WNW
312°
NW
326°
NW
342°
NNW
355°
N
358°
N
11°
N
16°
NNE
36°
NE

Daily Forecast

Date High Low Precip. Humidity
Today
Apr 11

Rain
74 °F
59 °F
65%
62%
Monday
Apr 12

Clear
79 °F
56 °F
73%
36%
Tuesday
Apr 13

Clear
71 °F
61 °F
0%
48%
Wednesday
Apr 14

Rain
75 °F
63 °F
49%
61%
Thursday
Apr 15

Rain
69 °F
63 °F
83%
92%
Friday
Apr 16

Rain
64 °F
57 °F
20%
60%
Saturday
Apr 17

Rain
64 °F
57 °F
73%
91%
Sunday
Apr 18

Clouds
69 °F
52 °F
0%
40%
Monday
Apr 19

Clear
70 °F
58 °F
0%
46%
Tuesday
Apr 20

Clouds
74 °F
58 °F
24%
37%
Wednesday
Apr 21

Clouds
71 °F
60 °F
0%
52%
Thursday
Apr 22

Rain
73 °F
65 °F
61%
66%
Friday
Apr 23

Rain
70 °F
63 °F
53%
63%
Saturday
Apr 24

Clouds
70 °F
62 °F
26%
73%
Sunday
Apr 25

Rain
76 °F
66 °F
100%
62%
Monday
Apr 26

Clouds
65 °F
57 °F
3%
38%

Temperature 8-14 Day Outlook



Precipitation 8-14 Day Outlook




Quick Links
Hilton Head News
Hilton Head Photos
Hilton Head Videos




About Us
Contact Us
Site Map
Search Site
Advertise With Us
   
HiltonHead.USCoast.info
THE HILTON HEAD WEBSITE

Copyright 2021, Coastal Town
Privacy    |    Legal